STARLINK-34522

导读 | 星芒AI

STARLINK-34522 是 SpaceX Starlink 项目中的一颗低轨通信卫星,属于该公司为提供全球宽带互联网服务而部署的庞大卫星群之一。该卫星于2023年发射,运行在约550公里高度的近地轨道,设计用于增强Starlink网络的覆盖与性能。它采用先进的推进和通信技术,支持高速、低延迟的互联网连接。Starlink项目旨在为全球用户提供可靠的网络服务,尤其关注偏远和网络基础设施薄弱的地区。

基本信息
目录编号:
64492
目录名称:
STARLINK-34522
国际标识:
2025-133W
轨道中心:
EARTH
卫星名称:
STARLINK-34522
卫星全名:
STARLINK-34522
卫星状态:
在轨 (已飞行139 天)
发射日期:
2025-06-23 UTC
国别 :
美国 (US)
星等 :
--
轨道信息
数据来源 国际轨道数据
星历时间: 2025-11-09T04:00:02+0800
19小时前
查看轨道信息
半长轴: 6825.595km
偏心率: 0.0001243
轨道倾角: 53.160°
近地点辐角 98.154°
升交点赤经 318.673°
平近点角 40.840°
近地点: 446.611km
远地点: 448.309km
周期: 93.534分钟
每日圈数: 15.395438
详细信息
使用方式:
暂无
2D轨道图
3D轨道图
轨道高度分析图
轨道倾角分析图
轨道综合分析图
查看轨道综合分析图